Location: Antin
(43.3330°N, 0.2804°E)
Time: 17:49:49
(UTC+00:00)

SME Rocket - Pass Details

Date: 15 December 2023
Orbit: 550 x 2645 km, 99.9° (Epoch: 20 February)

Event Time Altitude Azimuth Distance (km) Brightness Sun altitude
Rises 06:16:50 0° 17° (NNE) 5,979 8.0 -11.8°
Reaches altitude 10° 06:20:37 10° 25° (NNE) 5,137 7.8 -11.1°
Maximum altitude 06:33:48 43° 93° (E) 3,384 7.4 -8.9°
Drops below altitude 10° 06:46:38 10° 160° (SSE) 5,066 8.4 -6.8°
Sets 06:50:15 0° 167° (SSE) 5,895 8.7 -6.2°
